• In Italy
  • List of Countries
  • For 7 days
  • Water Temperature
  • Satellite Maps
  • Weather Map
  • Weather Widgets
  • user-avatar
    Login

    Hourly Weather Ivskaya Vershina

    Today, 21 August, Tuesday

    Time Temperature Precipitation Wind Pressure Humidity
    00:00 +17°C° 0 mm 2 mps 748 mmHg 94%
    01:00 +16°C° 0.1 mm 2 mps 748 mmHg 95%
    02:00 +16°C° 0.1 mm 2 mps 748 mmHg 95%
    03:00 +16°C° 0.1 mm 2 mps 748 mmHg 96%
    04:00 +17°C° 0.1 mm 2 mps 748 mmHg 95%
    05:00 +17°C° 0.1 mm 2 mps 748 mmHg 95%
    06:00 +17°C° 0.1 mm 2 mps 748 mmHg 95%
    07:00 +18°C° 0.2 mm 2 mps 747 mmHg 91%
    08:00 +19°C° 0.2 mm 2 mps 747 mmHg 87%
    09:00 +20°C° 0.2 mm 2 mps 747 mmHg 82%
    10:00 +21°C° 0.5 mm 3 mps 747 mmHg 80%
    11:00 +22°C° 0.5 mm 3 mps 747 mmHg 77%
    12:00 +22°C° 0.5 mm 3 mps 747 mmHg 74%
    13:00 +24°C° 0.2 mm 3 mps 746 mmHg 71%
    14:00 +25°C° 0.2 mm 4 mps 746 mmHg 69%
    15:00 +25°C° 0.2 mm 4 mps 746 mmHg 66%
    16:00 +25°C° 0 mm 4 mps 745 mmHg 69%
    17:00 +23°C° 0 mm 4 mps 745 mmHg 73%
    18:00 +22°C° 0 mm 4 mps 744 mmHg 77%
    19:00 +21°C° 0 mm 4 mps 744 mmHg 78%
    20:00 +20°C° 0 mm 4 mps 743 mmHg 79%
    21:00 +19°C° 0 mm 4 mps 743 mmHg 81%
    22:00 +19°C° 0 mm 4 mps 743 mmHg 80%
    23:00 +19°C° 0 mm 5 mps 742 mmHg 79%

    Tomorrow, 22 August, Wednesday

    Time Temperature Precipitation Wind Pressure Humidity
    00:00 +19°C° 0 mm 5 mps 742 mmHg 78%
    01:00 +17°C° 0.3 mm 5 mps 742 mmHg 80%
    02:00 +17°C° 0.3 mm 5 mps 742 mmHg 82%
    03:00 +17°C° 0.3 mm 5 mps 741 mmHg 83%
    04:00 +16°C° 0.8 mm 5 mps 742 mmHg 87%
    05:00 +17°C° 0.8 mm 4 mps 742 mmHg 90%
    06:00 +17°C° 0.8 mm 4 mps 742 mmHg 93%
    07:00 +15°C° 0.4 mm 4 mps 742 mmHg 90%
    08:00 +15°C° 0.4 mm 4 mps 742 mmHg 87%
    09:00 +15°C° 0.4 mm 4 mps 742 mmHg 84%
    10:00 +15°C° 0 mm 4 mps 743 mmHg 78%
    11:00 +17°C° 0 mm 4 mps 743 mmHg 73%
    12:00 +18°C° 0 mm 4 mps 743 mmHg 68%
    13:00 +18°C° 0 mm 4 mps 743 mmHg 64%
    14:00 +19°C° 0 mm 5 mps 744 mmHg 60%
    15:00 +20°C° 0 mm 5 mps 744 mmHg 56%
    16:00 +19°C° 0.1 mm 5 mps 744 mmHg 62%
    17:00 +17°C° 0.1 mm 4 mps 744 mmHg 68%
    18:00 +16°C° 0.1 mm 3 mps 745 mmHg 74%
    19:00 +14°C° 0 mm 3 mps 745 mmHg 79%
    20:00 +13°C° 0 mm 3 mps 745 mmHg 83%
    21:00 +11°C° 0 mm 3 mps 746 mmHg 87%
    22:00 +11°C° 0 mm 3 mps 746 mmHg 88%
    23:00 +10°C° 0 mm 4 mps 747 mmHg 89%

    Day after tomorrow, 23 August, Thursday

    Time Temperature Precipitation Wind Pressure Humidity
    00:00 +10°C° 0 mm 4 mps 747 mmHg 90%
    01:00 +10°C° 0 mm 4 mps 747 mmHg 90%
    02:00 +8°C° 0 mm 4 mps 748 mmHg 91%
    03:00 +8°C° 0 mm 4 mps 748 mmHg 92%
    04:00 +8°C° 0 mm 4 mps 748 mmHg 90%
    05:00 +8°C° 0 mm 4 mps 749 mmHg 88%
    06:00 +8°C° 0 mm 5 mps 749 mmHg 87%
    07:00 +9°C° 0 mm 5 mps 749 mmHg 80%
    08:00 +10°C° 0 mm 6 mps 750 mmHg 73%
    09:00 +11°C° 0 mm 6 mps 750 mmHg 65%
    10:00 +13°C° 0 mm 6 mps 750 mmHg 63%
    11:00 +14°C° 0 mm 6 mps 750 mmHg 60%
    12:00 +14°C° 0 mm 7 mps 750 mmHg 57%
    13:00 +15°C° 0.1 mm 6 mps 750 mmHg 57%
    14:00 +15°C° 0.1 mm 6 mps 750 mmHg 57%
    15:00 +15°C° 0.1 mm 6 mps 750 mmHg 57%
    16:00 +15°C° 0 mm 5 mps 750 mmHg 60%
    17:00 +14°C° 0 mm 4 mps 751 mmHg 63%
    18:00 +14°C° 0 mm 4 mps 751 mmHg 66%
    19:00 +12°C° 0 mm 4 mps 751 mmHg 69%
    20:00 +11°C° 0 mm 3 mps 751 mmHg 72%
    21:00 +10°C° 0 mm 3 mps 751 mmHg 75%
    22:00 +10°C° 0 mm 3 mps 751 mmHg 76%
    23:00 +10°C° 0 mm 3 mps 751 mmHg 76%

    24 August, Friday

    Time Temperature Precipitation Wind Pressure Humidity
    00:00 +10°C° 0 mm 3 mps 751 mmHg 76%
    01:00 +10°C° 0 mm 3 mps 751 mmHg 76%
    02:00 +10°C° 0 mm 3 mps 751 mmHg 76%
    03:00 +10°C° 0 mm 4 mps 751 mmHg 75%
    04:00 +10°C° 0.4 mm 3 mps 751 mmHg 81%
    05:00 +10°C° 0.4 mm 3 mps 751 mmHg 86%
    06:00 +10°C° 0.4 mm 3 mps 751 mmHg 92%
    07:00 +11°C° 0.5 mm 3 mps 751 mmHg 92%
    08:00 +11°C° 0.5 mm 3 mps 751 mmHg 93%
    09:00 +11°C° 0.5 mm 3 mps 750 mmHg 93%
    10:00 +12°C° 0.8 mm 3 mps 750 mmHg 92%
    11:00 +13°C° 0.8 mm 3 mps 750 mmHg 91%
    12:00 +13°C° 0.8 mm 3 mps 750 mmHg 90%
    13:00 +13°C° 0.4 mm 3 mps 750 mmHg 90%
    14:00 +14°C° 0.4 mm 3 mps 750 mmHg 89%
    15:00 +14°C° 0.4 mm 3 mps 750 mmHg 89%
    16:00 +14°C° 0.1 mm 2 mps 750 mmHg 91%
    17:00 +14°C° 0.1 mm 2 mps 751 mmHg 92%
    18:00 +14°C° 0.1 mm 2 mps 751 mmHg 93%
    19:00 +13°C° 0 mm 2 mps 751 mmHg 94%
    20:00 +12°C° 0 mm 1 mps 751 mmHg 94%
    21:00 +12°C° 0 mm 1 mps 752 mmHg 95%
    22:00 +11°C° 0 mm 1 mps 752 mmHg 94%
    23:00 +11°C° 0 mm 1 mps 752 mmHg 94%

    25 August, Saturday

    Time Temperature Precipitation Wind Pressure Humidity
    00:00 +11°C° 0 mm 1 mps 752 mmHg 93%
    01:00 +10°C° 0 mm 1 mps 753 mmHg 93%
    02:00 +10°C° 0 mm 1 mps 753 mmHg 92%
    03:00 +9°C° 0 mm 0 mps 753 mmHg 92%
    04:00 +9°C° 0 mm 0 mps 753 mmHg 91%
    05:00 +10°C° 0 mm 0 mps 754 mmHg 89%
    06:00 +10°C° 0 mm 0 mps 754 mmHg 88%
    07:00 +12°C° 0 mm 0 mps 754 mmHg 81%
    08:00 +14°C° 0 mm 0 mps 754 mmHg 75%
    09:00 +16°C° 0 mm 0 mps 754 mmHg 68%
    10:00 +20°C° 0 mm 1 mps 754 mmHg 63%
    11:00 +21°C° 0 mm 1 mps 754 mmHg 58%
    12:00 +22°C° 0 mm 1 mps 754 mmHg 53%
    13:00 +22°C° 0 mm 1 mps 754 mmHg 53%
    14:00 +23°C° 0 mm 1 mps 754 mmHg 53%
    15:00 +23°C° 0 mm 1 mps 754 mmHg 53%
    16:00 +22°C° 0 mm 1 mps 754 mmHg 60%
    17:00 +19°C° 0 mm 0 mps 754 mmHg 66%
    18:00 +18°C° 0 mm 0 mps 754 mmHg 72%
    19:00 +16°C° 0 mm 0 mps 754 mmHg 76%
    20:00 +15°C° 0 mm 0 mps 754 mmHg 79%
    21:00 +14°C° 0 mm 0 mps 754 mmHg 83%
    22:00 +14°C° 0 mm 0 mps 754 mmHg 84%
    23:00 +14°C° 0 mm 1 mps 754 mmHg 85%

    26 August, Sunday

    Time Temperature Precipitation Wind Pressure Humidity
    00:00 +14°C° 0 mm 1 mps 754 mmHg 87%
    01:00 +14°C° 0 mm 1 mps 754 mmHg 88%
    02:00 +14°C° 0 mm 1 mps 755 mmHg 89%
    03:00 +14°C° 0 mm 1 mps 755 mmHg 90%
    04:00 +14°C° 0 mm 1 mps 755 mmHg 89%
    05:00 +14°C° 0 mm 0 mps 755 mmHg 89%
    06:00 +14°C° 0 mm 0 mps 755 mmHg 88%
    07:00 +16°C° 0 mm 0 mps 755 mmHg 82%
    08:00 +18°C° 0 mm 0 mps 755 mmHg 76%
    09:00 +20°C° 0 mm 0 mps 755 mmHg 70%
    10:00 +23°C° 0 mm 1 mps 755 mmHg 67%
    11:00 +24°C° 0 mm 1 mps 755 mmHg 63%
    12:00 +25°C° 0 mm 1 mps 755 mmHg 60%
    13:00 +25°C° 0.1 mm 1 mps 754 mmHg 59%
    14:00 +25°C° 0.1 mm 2 mps 754 mmHg 58%
    15:00 +25°C° 0.1 mm 2 mps 754 mmHg 57%
    16:00 +24°C° 0 mm 2 mps 754 mmHg 63%
    17:00 +23°C° 0 mm 2 mps 754 mmHg 68%
    18:00 +22°C° 0 mm 1 mps 754 mmHg 73%
    19:00 +21°C° 0 mm 1 mps 754 mmHg 76%
    20:00 +19°C° 0 mm 1 mps 754 mmHg 79%
    21:00 +18°C° 0 mm 1 mps 754 mmHg 82%
    22:00 +18°C° 0 mm 1 mps 754 mmHg 82%
    23:00 +16°C° 0 mm 1 mps 754 mmHg 83%
    Show more